Location: Melizzano
(41.1500°N, 14.5000°E)
Time: 22:33:18
(UTC+00:00)

Cosmos 1271 Rocket - Pass Details

Date: 11 May 2021
Orbit: 497 x 545 km, 81.2° (Epoch: 24 June)

Event Time Altitude Azimuth Distance (km) Brightness Sun altitude
Exits shadow 20:18:20 48° 91° (E) 717 3.1 -20.1°
Drops below altitude 10° 20:22:08 10° 21° (NNE) 1,823 5.8 -20.6°
Sets 20:24:21 0° 16° (NNE) 2,721 6.9 -20.8°
